| time (UTC) | temp F | wind direction | speed MPH | gust MPH | rain 1hr in | rain 24hr in | rain mn in | humidity % | barometer mb |
| 20260502210147 | 72 | 330 | 7.0 | 15.0 | 0.00 | 0.00 | 0.68 | 40 | 1014.9 |
| 20260502205647 | 73 | 339 | 8.0 | 18.0 | 0.00 | 0.00 | 0.68 | 40 | 1014.9 |
| 20260502205147 | 72 | 320 | 13.0 | 17.0 | 0.00 | 0.00 | 0.68 | 42 | 1014.9 |
| 20260502204646 | 73 | 46 | 12.0 | 14.0 | 0.00 | 0.00 | 0.68 | 42 | 1014.9 |
| 20260502204147 | 72 | 353 | 12.0 | 20.0 | 0.00 | 0.00 | 0.68 | 42 | 1014.9 |
| 20260502203647 | 72 | 15 | 13.0 | 16.0 | 0.00 | 0.00 | 0.68 | 44 | 1014.9 |
| 20260502203146 | 73 | 35 | 8.0 | 14.0 | 0.00 | 0.00 | 0.68 | 43 | 1014.9 |
| 20260502202646 | 73 | 340 | 7.0 | 16.0 | 0.00 | 0.00 | 0.68 | 45 | 1014.6 |
| 20260502202147 | 72 | 353 | 7.0 | 9.0 | 0.00 | 0.00 | 0.68 | 47 | 1014.9 |
| 20260502201646 | 72 | 339 | 13.0 | 14.0 | 0.00 | 0.00 | 0.68 | 49 | 1014.9 |
| 20260502201146 | 72 | 347 | 7.0 | 17.0 | 0.00 | 0.00 | 0.68 | 49 | 1014.9 |
| 20260502200646 | 72 | 16 | 5.0 | 19.0 | 0.00 | 0.00 | 0.68 | 49 | 1015.2 |
| 20260502200147 | 72 | 352 | 8.0 | 15.0 | 0.00 | 0.00 | 0.68 | 51 | 1015.2 |
| 20260502195646 | 72 | 331 | 9.0 | 17.0 | 0.00 | 0.00 | 0.68 | 53 | 1015.2 |
| 20260502195146 | 72 | 339 | 5.0 | 14.0 | 0.00 | 0.00 | 0.68 | 53 | 1015.2 |
| 20260502194646 | 72 | 342 | 5.0 | 15.0 | 0.00 | 0.00 | 0.68 | 53 | 1015.2 |
| 20260502194149 | 71 | 331 | 7.0 | 14.0 | 0.00 | 0.00 | 0.68 | 53 | 1015.2 |
| 20260502193647 | 71 | 358 | 5.0 | 23.0 | 0.00 | 0.00 | 0.68 | 55 | 1015.2 |
| 20260502193146 | 72 | 1 | 10.0 | 16.0 | 0.00 | 0.00 | 0.68 | 53 | 1015.6 |
| 20260502192646 | 72 | 11 | 7.0 | 18.0 | 0.00 | 0.00 | 0.68 | 55 | 1015.6 |
| 20260502192147 | 71 | 50 | 2.0 | 12.0 | 0.00 | 0.00 | 0.68 | 57 | 1015.6 |
| 20260502191647 | 71 | 11 | 7.0 | 17.0 | 0.00 | 0.00 | 0.68 | 56 | 1015.2 |
| 20260502191146 | 71 | 352 | 8.0 | 18.0 | 0.00 | 0.00 | 0.68 | 55 | 1015.2 |
| 20260502190647 | 72 | 310 | 14.0 | 16.0 | 0.00 | 0.00 | 0.68 | 56 | 1015.2 |
| 20260502190146 | 71 | 12 | 5.0 | 9.0 | 0.00 | 0.00 | 0.68 | 58 | 1015.6 |
| 20260502185646 | 71 | 344 | 7.0 | 14.0 | 0.00 | 0.00 | 0.68 | 59 | 1015.6 |
| 20260502185146 | 71 | 10 | 9.0 | 15.0 | 0.00 | 0.00 | 0.68 | 56 | 1015.6 |
| 20260502184646 | 71 | 332 | 7.0 | 10.0 | 0.00 | 0.00 | 0.68 | 58 | 1015.2 |
| 20260502184146 | 70 | 309 | 8.0 | 12.0 | 0.00 | 0.00 | 0.68 | 59 | 1015.2 |
| 20260502183646 | 71 | 42 | 7.0 | 21.0 | 0.00 | 0.00 | 0.68 | 58 | 1015.6 |
| 20260502183146 | 71 | 28 | 4.0 | 11.0 | 0.00 | 0.00 | 0.68 | 59 | 1015.6 |
| 20260502182647 | 71 | 334 | 5.0 | 15.0 | 0.00 | 0.00 | 0.68 | 60 | 1015.6 |
| 20260502182146 | 70 | 334 | 6.0 | 13.0 | 0.00 | 0.00 | 0.68 | 60 | 1015.6 |
| 20260502181647 | 71 | 326 | 9.0 | 15.0 | 0.00 | 0.00 | 0.68 | 58 | 1015.6 |
| 20260502181147 | 70 | 21 | 10.0 | 15.0 | 0.00 | 0.00 | 0.68 | 59 | 1015.6 |
| 20260502180646 | 70 | 1 | 6.0 | 15.0 | 0.00 | 0.00 | 0.68 | 59 | 1015.6 |
| 20260502180146 | 69 | 12 | 8.0 | 19.0 | 0.00 | 0.00 | 0.68 | 59 | 1015.6 |
| 20260502170146 | 68 | 38 | 5.0 | 12.0 | 0.00 | 0.00 | 0.68 | 66 | 1016.3 |
| 20260502164157 | 66 | 350 | 10.0 | 14.0 | 0.00 | 0.00 | 0.68 | 71 | 1016.3 |
| 20260502163646 | 66 | 22 | 11.0 | 17.0 | 0.00 | 0.00 | 0.68 | 70 | 1016.3 |
| 20260502163147 | 66 | 358 | 5.0 | 13.0 | 0.00 | 0.00 | 0.68 | 70 | 1016.3 |
| 20260502162646 | 66 | 326 | 5.0 | 12.0 | 0.00 | 0.00 | 0.68 | 70 | 1016.3 |
| 20260502162146 | 66 | 13 | 6.0 | 13.0 | 0.00 | 0.00 | 0.68 | 71 | 1016.3 |
| 20260502161647 | 66 | 357 | 9.0 | 16.0 | 0.00 | 0.00 | 0.68 | 72 | 1016.3 |
| 20260502161147 | 65 | 34 | 9.0 | 14.0 | 0.00 | 0.00 | 0.68 | 73 | 1016.6 |
| 20260502160647 | 65 | 357 | 10.0 | 14.0 | 0.00 | 0.00 | 0.68 | 74 | 1015.9 |
| 20260502160146 | 64 | 20 | 11.0 | 15.0 | 0.00 | 0.00 | 0.68 | 75 | 1016.3 |
| 20260502152146 | 63 | 354 | 2.0 | 8.0 | 0.00 | 0.00 | 0.68 | 78 | 1016.3 |
| 20260502151646 | 63 | 36 | 5.0 | 9.0 | 0.00 | 0.00 | 0.68 | 78 | 1016.3 |
| 20260502151146 | 63 | 325 | 7.0 | 14.0 | 0.00 | 0.00 | 0.68 | 78 | 1016.3 |
| 20260502150647 | 63 | 331 | 6.0 | 11.0 | 0.00 | 0.00 | 0.68 | 78 | 1016.3 |
| 20260502150148 | 62 | 9 | 6.0 | 13.0 | 0.00 | 0.00 | 0.68 | 78 | 1016.3 |
| 20260502130158 | 59 | 359 | 6.0 | 17.0 | 0.00 | 0.00 | 0.68 | 82 | 1014.9 |
| 20260502123647 | 58 | 23 | 7.0 | 16.0 | 0.00 | 0.00 | 0.68 | 86 | 1014.2 |
| 20260502123148 | 58 | 25 | 6.0 | 10.0 | 0.00 | 0.00 | 0.68 | 87 | 1014.2 |
| 20260502122646 | 58 | 24 | 6.0 | 12.0 | 0.00 | 0.00 | 0.68 | 87 | 1014.2 |
| 20260502122146 | 58 | 35 | 9.0 | 21.0 | 0.00 | 0.00 | 0.68 | 87 | 1014.2 |
| 20260502121646 | 58 | 24 | 8.0 | 18.0 | 0.00 | 0.00 | 0.68 | 87 | 1014.2 |
| 20260502121147 | 58 | 39 | 12.0 | 18.0 | 0.00 | 0.00 | 0.68 | 89 | 1014.2 |
| 20260502120646 | 58 | 5 | 10.0 | 14.0 | 0.00 | 0.00 | 0.68 | 90 | 1014.2 |
| 20260502120146 | 57 | 12 | 9.0 | 17.0 | 0.00 | 0.00 | 0.68 | 90 | 1014.2 |
| 20260502115647 | 57 | 25 | 12.0 | 20.0 | 0.00 | 0.00 | 0.68 | 90 | 1013.9 |
| 20260502115146 | 58 | 346 | 4.0 | 19.0 | 0.00 | 0.00 | 0.68 | 91 | 1013.5 |
| 20260502114647 | 58 | 37 | 9.0 | 15.0 | 0.00 | 0.00 | 0.68 | 90 | 1013.5 |
| 20260502114146 | 58 | 24 | 12.0 | 21.0 | 0.00 | 0.00 | 0.68 | 90 | 1013.5 |
| 20260502113647 | 58 | 34 | 11.0 | 19.0 | 0.00 | 0.00 | 0.68 | 90 | 1013.5 |
| 20260502113146 | 58 | 10 | 5.0 | 16.0 | 0.00 | 0.00 | 0.68 | 91 | 1013.5 |
| 20260502112647 | 57 | 24 | 5.0 | 15.0 | 0.00 | 0.00 | 0.68 | 92 | 1013.2 |
| 20260502112147 | 57 | 24 | 6.0 | 20.0 | 0.00 | 0.00 | 0.68 | 93 | 1013.2 |
| 20260502111647 | 57 | 46 | 6.0 | 14.0 | 0.00 | 0.00 | 0.68 | 94 | 1013.2 |
| 20260502111147 | 57 | 351 | 6.0 | 11.0 | 0.00 | 0.00 | 0.68 | 95 | 1013.2 |
| 20260502110646 | 57 | 43 | 8.0 | 13.0 | 0.02 | 0.00 | 0.68 | 95 | 1012.9 |
| 20260502110146 | 57 | 23 | 11.0 | 16.0 | 0.02 | 0.00 | 0.68 | 95 | 1013.2 |
| 20260502105647 | 57 | 35 | 11.0 | 18.0 | 0.00 | 0.00 | 0.67 | 96 | 1012.9 |
| 20260502105148 | 57 | 9 | 8.0 | 17.0 | 0.00 | 0.00 | 0.67 | 96 | 1012.9 |
| 20260502104646 | 57 | 38 | 6.0 | 12.0 | 0.00 | 0.00 | 0.67 | 95 | 1012.9 |
| 20260502104147 | 57 | 35 | 13.0 | 19.0 | 0.00 | 0.00 | 0.67 | 95 | 1012.9 |
| 20260502103646 | 57 | 33 | 10.0 | 17.0 | 0.00 | 0.00 | 0.67 | 95 | 1012.9 |
| 20260502103152 | 57 | 20 | 13.0 | 15.0 | 0.02 | 0.00 | 0.67 | 95 | 1012.9 |
| 20260502102650 | 57 | 15 | 6.0 | 16.0 | 0.02 | 0.00 | 0.67 | 96 | 1012.5 |
| 20260502102146 | 57 | 48 | 3.0 | 17.0 | 0.00 | 0.00 | 0.67 | 95 | 1012.5 |
| 20260502101651 | 57 | 2 | 5.0 | 18.0 | 0.00 | 0.00 | 0.67 | 94 | 1012.5 |
| 20260502101146 | 58 | 18 | 4.0 | 10.0 | 0.00 | 0.00 | 0.67 | 93 | 1012.5 |
| 20260502100647 | 58 | 30 | 11.0 | 17.0 | 0.00 | 0.00 | 0.67 | 92 | 1012.5 |
| 20260502100147 | 58 | 358 | 6.0 | 13.0 | 0.00 | 0.00 | 0.67 | 93 | 1012.5 |
| 20260502091146 | 57 | 0 | 9.0 | 13.0 | 0.00 | 0.00 | 0.67 | 95 | 1012.2 |
| 20260502090648 | 57 | 74 | 3.0 | 13.0 | 0.00 | 0.00 | 0.67 | 95 | 1012.5 |
| 20260502090149 | 57 | 76 | 3.0 | 7.0 | 0.00 | 0.00 | 0.67 | 96 | 1012.5 |
| 20260502071146 | 58 | 4 | 4.0 | 15.0 | 0.73 | 0.00 | 0.61 | 98 | 1011.2 |
| 20260502070646 | 58 | 315 | 8.0 | 9.0 | 0.17 | 0.00 | 0.50 | 98 | 1012.9 |
| 20260502070149 | 58 | 355 | 3.0 | 11.0 | 0.24 | 0.00 | 0.48 | 98 | 1012.2 |
| 20260502065647 | 58 | 45 | 7.0 | 11.0 | 0.19 | 0.00 | 0.47 | 98 | 1011.5 |
| 20260502065146 | 58 | 17 | 10.0 | 16.0 | 0.19 | 0.00 | 0.45 | 98 | 1011.5 |
| 20260502064647 | 58 | 23 | 10.0 | 12.0 | 0.17 | 0.00 | 0.43 | 98 | 1011.9 |
| 20260502064146 | 59 | 0 | 7.0 | 10.0 | 0.12 | 0.00 | 0.41 | 98 | 1012.2 |
| 20260502063647 | 58 | 1 | 8.0 | 14.0 | 0.14 | 0.00 | 0.41 | 98 | 1011.9 |
| 20260502063146 | 59 | 352 | 8.0 | 11.0 | 0.05 | 0.00 | 0.39 | 98 | 1011.9 |
| 20260502062647 | 58 | 324 | 7.0 | 9.0 | 0.00 | 0.00 | 0.38 | 99 | 1012.2 |
| 20260502062146 | 58 | 354 | 4.0 | 14.0 | 0.00 | 0.00 | 0.38 | 99 | 1011.9 |
| 20260502061646 | 59 | 1 | 6.0 | 11.0 | 0.00 | 0.00 | 0.38 | 99 | 1011.9 |
| 20260502061147 | 59 | 347 | 5.0 | 12.0 | 0.02 | 0.00 | 0.38 | 99 | 1011.9 |
| 20260502060646 | 59 | 22 | 8.0 | 14.0 | 0.02 | 0.00 | 0.38 | 99 | 1011.9 |
| 20260502060146 | 59 | 356 | 3.0 | 17.0 | 0.02 | 0.00 | 0.38 | 99 | 1011.9 |
| 20260502055646 | 59 | 1 | 12.0 | 13.0 | 0.07 | 0.00 | 0.38 | 99 | 1011.9 |
| 20260502055146 | 59 | 7 | 5.0 | 14.0 | 0.21 | 0.00 | 0.37 | 99 | 1012.2 |
| 20260502054646 | 59 | 353 | 3.0 | 9.0 | 0.85 | 0.00 | 0.37 | 99 | 1012.2 |
| 20260502054146 | 59 | 339 | 4.0 | 9.0 | 1.79 | 0.00 | 0.34 | 99 | 1012.5 |
| 20260502053648 | 59 | 5 | 7.0 | 12.0 | 0.78 | 0.00 | 0.17 | 99 | 1011.9 |
| 20260502053146 | 59 | 0 | 3.0 | 8.0 | 0.05 | 0.00 | 0.04 | 99 | 1012.5 |
| 20260502052647 | 60 | 18 | 3.0 | 11.0 | 0.09 | 0.00 | 0.04 | 99 | 1011.5 |
| 20260502052147 | 60 | 2 | 11.0 | 14.0 | 0.17 | 0.00 | 0.03 | 98 | 1011.2 |
| 20260502051646 | 60 | 31 | 3.0 | 8.0 | 0.09 | 0.00 | 0.02 | 98 | 1011.9 |
| 20260502051146 | 60 | 317 | 5.0 | 7.0 | 0.02 | 0.00 | 0.00 | 98 | 1012.2 |
| 20260502050648 | 60 | 48 | 4.0 | 9.0 | 0.02 | 0.00 | 0.00 | 98 | 1012.2 |
| 20260502050147 | 60 | 353 | 1.0 | 7.0 | 0.05 | 0.00 | 0.00 | 98 | 1012.9 |
| 20260502045646 | 60 | 0 | 5.0 | 10.0 | 0.07 | 0.00 | 1.63 | 98 | 1011.5 |
| 20260502045147 | 60 | 26 | 7.0 | 12.0 | 0.02 | 0.00 | 1.62 | 98 | 1011.9 |
| 20260502044647 | 60 | 34 | 3.0 | 11.0 | 0.00 | 0.00 | 1.61 | 98 | 1011.9 |
| 20260502044147 | 60 | 8 | 7.0 | 10.0 | 0.02 | 0.00 | 1.61 | 98 | 1011.9 |
| 20260502043647 | 60 | 45 | 5.0 | 17.0 | 0.02 | 0.00 | 1.61 | 99 | 1011.5 |
| 20260502043147 | 60 | 12 | 6.0 | 9.0 | 0.02 | 0.00 | 1.61 | 99 | 1011.5 |
| 20260502042646 | 60 | 63 | 6.0 | 12.0 | 0.05 | 0.00 | 1.61 | 99 | 1011.2 |
| 20260502042147 | 60 | 44 | 9.0 | 12.0 | 0.02 | 0.00 | 1.61 | 99 | 1010.8 |
| 20260502041647 | 60 | 5 | 5.0 | 10.0 | 0.00 | 0.00 | 1.60 | 99 | 1011.2 |
| 20260502041146 | 60 | 23 | 7.0 | 10.0 | 0.02 | 0.00 | 1.60 | 99 | 1011.2 |
| 20260502040646 | 60 | 336 | 7.0 | 11.0 | 0.02 | 0.00 | 1.60 | 99 | 1011.2 |
| 20260502040147 | 60 | 36 | 8.0 | 13.0 | 0.02 | 0.00 | 1.60 | 99 | 1011.2 |
| 20260502035646 | 59 | 31 | 5.0 | 11.0 | 0.02 | 0.00 | 1.60 | 99 | 1010.8 |
| 20260502034704 | 59 | 47 | 8.0 | 12.0 | 0.07 | 0.00 | 1.59 | 99 | 1011.9 |
| 20260502034147 | 59 | 51 | 4.0 | 9.0 | 0.09 | 0.00 | 1.59 | 99 | 1011.9 |
| 20260502033648 | 59 | 11 | 4.0 | 8.0 | 0.07 | 0.00 | 1.58 | 98 | 1011.9 |
| 20260502033146 | 59 | 32 | 8.0 | 8.0 | 0.05 | 0.00 | 1.57 | 98 | 1011.9 |
| 20260502032647 | 59 | 25 | 4.0 | 10.0 | 0.07 | 0.00 | 1.57 | 98 | 1012.2 |
| 20260502032146 | 59 | 66 | 6.0 | 10.0 | 0.07 | 0.00 | 1.57 | 98 | 1011.9 |
| 20260502031646 | 59 | 21 | 5.0 | 11.0 | 0.02 | 0.00 | 1.56 | 98 | 1011.9 |
| 20260502031147 | 59 | 21 | 4.0 | 8.0 | 0.00 | 0.00 | 1.55 | 98 | 1011.5 |
| 20260502030646 | 59 | 40 | 5.0 | 10.0 | 0.00 | 0.00 | 1.55 | 98 | 1011.5 |
| 20260502030147 | 59 | 31 | 3.0 | 10.0 | 0.00 | 0.00 | 1.55 | 98 | 1011.5 |
| 20260502025646 | 59 | 24 | 3.0 | 9.0 | 0.00 | 0.00 | 1.55 | 98 | 1011.5 |
| 20260502025146 | 59 | 21 | 4.0 | 7.0 | 0.00 | 0.00 | 1.55 | 98 | 1011.9 |
| 20260502024646 | 59 | 35 | 3.0 | 5.0 | 0.00 | 0.00 | 1.55 | 98 | 1011.5 |
| 20260502024147 | 59 | 50 | 5.0 | 8.0 | 0.00 | 0.00 | 1.55 | 98 | 1011.2 |
| 20260502023648 | 59 | 67 | 8.0 | 13.0 | 0.00 | 0.00 | 1.55 | 98 | 1010.8 |
| 20260502023147 | 59 | 65 | 5.0 | 13.0 | 0.00 | 0.00 | 1.55 | 97 | 1011.2 |
| 20260502022647 | 59 | 57 | 6.0 | 11.0 | 0.00 | 0.00 | 1.55 | 97 | 1011.2 |
| 20260502022146 | 59 | 29 | 6.0 | 12.0 | 0.00 | 0.00 | 1.55 | 97 | 1011.2 |
| 20260502021646 | 59 | 21 | 8.0 | 16.0 | 0.00 | 0.00 | 1.55 | 97 | 1010.8 |
| 20260502021147 | 59 | 33 | 5.0 | 15.0 | 0.00 | 0.00 | 1.55 | 97 | 1010.8 |
| 20260502020647 | 59 | 33 | 6.0 | 14.0 | 0.00 | 0.00 | 1.55 | 98 | 1010.8 |
| 20260502020146 | 59 | 341 | 5.0 | 13.0 | 0.00 | 0.00 | 1.55 | 98 | 1010.8 |
| 20260502015646 | 59 | 34 | 7.0 | 15.0 | 0.00 | 0.00 | 1.55 | 98 | 1010.5 |
| 20260502015146 | 59 | 37 | 3.0 | 12.0 | 0.00 | 0.00 | 1.55 | 99 | 1010.8 |
| 20260502014647 | 59 | 34 | 5.0 | 14.0 | 0.00 | 0.00 | 1.55 | 99 | 1010.8 |
| 20260502014146 | 59 | 354 | 4.0 | 12.0 | 0.05 | 0.00 | 1.55 | 99 | 1010.5 |
| 20260502013646 | 60 | 38 | 9.0 | 15.0 | 0.28 | 0.00 | 1.55 | 99 | 1011.2 |
| 20260502013147 | 60 | 37 | 3.0 | 10.0 | 0.24 | 0.00 | 1.54 | 98 | 1011.2 |
| 20260502012646 | 60 | 42 | 7.0 | 12.0 | 0.05 | 0.00 | 1.51 | 98 | 1011.5 |
| 20260502012146 | 60 | 36 | 6.0 | 10.0 | 0.09 | 0.00 | 1.50 | 98 | 1011.2 |
| 20260502011646 | 60 | 51 | 7.0 | 14.0 | 0.21 | 0.00 | 1.50 | 98 | 1011.2 |
| 20260502011146 | 60 | 28 | 6.0 | 13.0 | 0.17 | 0.00 | 1.48 | 98 | 1011.2 |
| 20260502010646 | 60 | 48 | 9.0 | 12.0 | 0.05 | 0.00 | 1.47 | 98 | 1011.2 |
| 20260502010147 | 60 | 0 | 9.0 | 11.0 | 0.00 | 0.00 | 1.46 | 98 | 1011.9 |
| 20260502005647 | 60 | 0 | 8.0 | 16.0 | 0.00 | 0.00 | 1.46 | 98 | 1011.2 |
| 20260502005146 | 60 | 38 | 6.0 | 14.0 | 0.00 | 0.00 | 1.46 | 98 | 1011.2 |
| 20260502004647 | 60 | 19 | 7.0 | 15.0 | 0.00 | 0.00 | 1.46 | 98 | 1011.2 |
| 20260502004146 | 60 | 13 | 13.0 | 17.0 | 0.00 | 0.00 | 1.46 | 98 | 1011.2 |
| 20260502003646 | 60 | 29 | 6.0 | 11.0 | 0.02 | 0.00 | 1.46 | 98 | 1011.2 |
| 20260502003146 | 60 | 27 | 10.0 | 12.0 | 0.02 | 0.00 | 1.46 | 98 | 1010.8 |
| 20260502002646 | 60 | 42 | 5.0 | 13.0 | 0.05 | 0.00 | 1.45 | 99 | 1010.8 |
| 20260502002146 | 60 | 41 | 6.0 | 11.0 | 0.24 | 0.00 | 1.45 | 98 | 1011.2 |
| 20260502001647 | 60 | 35 | 7.0 | 13.0 | 0.28 | 0.00 | 1.44 | 98 | 1010.8 |
| 20260502001146 | 60 | 24 | 8.0 | 14.0 | 0.19 | 0.00 | 1.41 | 98 | 1010.5 |
| 20260502000646 | 59 | 15 | 12.0 | 16.0 | 0.26 | 0.00 | 1.39 | 98 | 1010.5 |
| 20260502000146 | 59 | 14 | 6.0 | 17.0 | 0.31 | 0.00 | 1.37 | 98 | 1010.2 |
| 20260501235648 | 60 | 5 | 7.0 | 17.0 | 0.19 | 0.00 | 1.35 | 98 | 1010.5 |
| 20260501235147 | 60 | 3 | 12.0 | 19.0 | 0.09 | 0.00 | 1.32 | 98 | 1010.2 |
| 20260501234646 | 60 | 30 | 6.0 | 20.0 | 0.12 | 0.00 | 1.31 | 98 | 1010.5 |
| 20260501234147 | 60 | 41 | 9.0 | 15.0 | 0.21 | 0.00 | 1.31 | 98 | 1010.2 |
| 20260501233648 | 60 | 39 | 9.0 | 21.0 | 0.26 | 0.00 | 1.29 | 98 | 1010.2 |
| 20260501233147 | 60 | 16 | 10.0 | 13.0 | 0.26 | 0.00 | 1.27 | 98 | 1010.5 |
| 20260501232646 | 60 | 340 | 5.0 | 19.0 | 0.33 | 0.00 | 1.24 | 97 | 1010.5 |
| 20260501232147 | 60 | 42 | 12.0 | 17.0 | 0.31 | 0.00 | 1.22 | 97 | 1010.5 |
| 20260501231647 | 60 | 39 | 11.0 | 15.0 | 0.19 | 0.00 | 1.19 | 97 | 1010.2 |
| 20260501231147 | 60 | 47 | 12.0 | 17.0 | 0.21 | 0.00 | 1.17 | 96 | 1010.5 |
| 20260501230646 | 60 | 28 | 8.0 | 21.0 | 0.12 | 0.00 | 1.15 | 96 | 1010.2 |
| 20260501230147 | 60 | 332 | 4.0 | 19.0 | 0.00 | 0.00 | 1.13 | 95 | 1010.2 |
| 20260501225647 | 60 | 34 | 5.0 | 15.0 | 0.00 | 0.00 | 1.13 | 95 | 1009.8 |
| 20260501225146 | 61 | 53 | 7.0 | 15.0 | 0.00 | 0.00 | 1.13 | 95 | 1009.8 |
| 20260501224646 | 61 | 22 | 7.0 | 15.0 | 0.02 | 0.00 | 1.13 | 95 | 1010.2 |
| 20260501224146 | 61 | 0 | 10.0 | 17.0 | 0.02 | 0.00 | 1.13 | 95 | 1010.2 |
| 20260501223648 | 61 | 35 | 8.0 | 10.0 | 0.00 | 0.00 | 1.13 | 95 | 1010.2 |
| 20260501223147 | 62 | 5 | 6.0 | 18.0 | 0.00 | 0.00 | 1.13 | 94 | 1010.5 |
| 20260501222646 | 62 | 17 | 6.0 | 15.0 | 0.00 | 0.00 | 1.13 | 94 | 1010.2 |
| 20260501222146 | 62 | 36 | 12.0 | 22.0 | 0.00 | 0.00 | 1.13 | 93 | 1010.5 |
| 20260501221647 | 63 | 34 | 5.0 | 14.0 | 0.00 | 0.00 | 1.13 | 94 | 1010.2 |
| 20260501221146 | 63 | 13 | 14.0 | 19.0 | 0.00 | 0.00 | 1.13 | 95 | 1010.2 |
| 20260501220646 | 63 | 332 | 9.0 | 15.0 | 0.00 | 0.00 | 1.13 | 95 | 1010.2 |
| 20260501220146 | 63 | 7 | 7.0 | 19.0 | 0.00 | 0.00 | 1.13 | 96 | 1010.2 |
| 20260501215646 | 63 | 18 | 4.0 | 11.0 | 0.00 | 0.00 | 1.13 | 96 | 1009.8 |
| 20260501215147 | 64 | 14 | 14.0 | 15.0 | 0.00 | 0.00 | 1.13 | 97 | 1009.8 |
| 20260501214647 | 64 | 5 | 4.0 | 13.0 | 0.00 | 0.00 | 1.13 | 97 | 1009.8 |
| 20260501214146 | 63 | 35 | 6.0 | 17.0 | 0.00 | 0.00 | 1.13 | 97 | 1009.8 |
| 20260501213647 | 63 | 26 | 8.0 | 16.0 | 0.00 | 0.00 | 1.13 | 97 | 1010.5 |
| 20260501213148 | 63 | 22 | 7.0 | 13.0 | 0.02 | 0.00 | 1.13 | 98 | 1010.8 |
| 20260501212646 | 63 | 339 | 10.0 | 14.0 | 0.17 | 0.00 | 1.13 | 98 | 1010.5 |
| 20260501212146 | 63 | 6 | 7.0 | 13.0 | 0.31 | 0.00 | 1.13 | 98 | 1010.8 |
| 20260501211646 | 63 | 347 | 9.0 | 13.0 | 0.12 | 0.00 | 1.09 | 98 | 1010.8 |
| 20260501211146 | 63 | 11 | 6.0 | 10.0 | 0.00 | 0.00 | 1.07 | 98 | 1011.2 |
| 20260501210647 | 63 | 14 | 10.0 | 14.0 | 0.02 | 0.00 | 1.07 | 98 | 1011.2 |